[[{"header":{"parameterUnit":"m.s-1","parameterCategory":1,"la1":30.2991,"la2":30.254,"lo1":-89.0895,"lo2":-89.0444,"dy":0.0017,"dx":0.0017,"nx":28,"ny":28,"refTime":"2024-07-01T21:00:00:Z","depth":0,"parameterNumber":2,"parameterNumberName":"U-component_of_WINDS"},"data":[0,0,0,0,0,0,0,0,0,0,0,0,0,0,0,0,0,0,0,0,0,0,0,0,0,0,0,0,0,0,0,0,0,0,0,0,0,0,0,0,0,0,0,0,0,0,0,0,0,0,0,0,0,0,0,0,0,0,-1.4994,-1.4994,0,-1.4927,-1.4927,-1.4926,-1.4882,-1.4882,-1.4882,-1.4881,-1.481,-1.4809,-1.4807,0,0,0,0,0,0,0,0,0,0,0,0,0,-1.5083,-1.5081,-1.4995,-1.4994,-1.4993,-1.4928,-1.4927,-1.4926,-1.4882,-1.4882,-1.4882,-1.4881,-1.4811,-1.4809,-1.4807,0,0,0,0,0,0,0,0,0,0,0,0,0,-1.5033,-1.5081,-1.4995,-1.4963,-1.496,-1.4928,-1.4927,-1.4925,-1.4882,-1.4882,-1.4882,-1.4881,-1.4811,-1.4809,-1.4807,-1.4799,0,0,-1.4799,-1.4798,0,0,0,0,0,0,0,0,-1.5036,-1.503,-1.4969,-1.4966,-1.4962,-1.4913,-1.4931,-1.4883,-1.4882,-1.4912,-1.4881,-1.4881,-1.4845,-1.4839,-1.4827,-1.4796,-1.4793,-1.4799,-1.4797,-1.4796,-1.4796,0,0,0,0,0,0,0,-1.5039,-1.5032,-1.4968,-1.4968,-1.4964,-1.4952,-1.4944,-1.4922,-1.4881,-1.4909,-1.4906,-1.4899,-1.4842,-1.483,-1.4825,-1.4792,-1.4799,-1.4797,-1.4795,-1.4794,-1.475,-1.475,0,0,0,0,0,0,-1.5048,-1.5035,-1.497,-1.4966,-1.4999,-1.4951,-1.4942,-1.4929,-1.4881,-1.4874,-1.4899,-1.4897,-1.4834,-1.4828,-1.4823,-1.481,-1.4796,-1.4794,-1.4792,-1.475,-1.475,-1.475,0,0,0,0,0,0,-1.505,-1.5043,-1.4973,-1.5,-1.499,-1.495,-1.4935,-1.4928,-1.4915,-1.4874,-1.4866,-1.4894,-1.4834,-1.4826,-1.4805,-1.4807,-1.4793,-1.4791,-1.4749,-1.475,-1.475,-1.4786,0,0,0,0,0,0,-1.5053,-1.5044,-1.5041,-1.5,-1.4989,-1.4957,-1.4935,-1.4927,-1.4911,-1.4908,-1.4867,-1.486,-1.4833,-1.4809,-1.4803,-1.4804,-1.4789,-1.4749,-1.475,-1.475,-1.4785,-1.4788,-1.4791,0,0,0,0,0,-1.5056,-1.5054,-1.5041,-1.5033,-1.4985,-1.4958,-1.4951,-1.4921,-1.4912,-1.4908,-1.4882,-1.4861,-1.4809,-1.4808,-1.48,-1.48,-1.4749,-1.4749,-1.475,-1.4783,-1.4787,-1.4791,0,0,0,0,0,0,-1.5095,-1.5048,-1.5033,-1.5018,-1.4992,-1.495,-1.4945,-1.4926,-1.4902,-1.49,-1.4863,-1.4854,-1.4837,-1.4816,-1.4816,-1.479,-1.4776,-1.4775,-1.4804,-1.4807,-1.481,-1.4815,-1.4787,0,0,0,0,0,-1.5102,-1.5085,-1.5044,-1.5034,-1.5022,-1.4986,-1.4973,-1.4952,-1.4924,-1.4913,-1.4884,-1.4857,-1.4834,-1.482,-1.4796,-1.4782,-1.4772,-1.4778,-1.4781,-1.4784,-1.4783,-1.4773,-1.4775,-1.4753,-1.4753,-1.4753,0,0,-1.5116,-1.5088,-1.5079,-1.5041,-1.5019,-1.5001,-1.4977,-1.4959,-1.4945,-1.4909,-1.4888,-1.4866,-1.4833,-1.4816,-1.4806,-1.4798,-1.4787,-1.4785,-1.4787,-1.4785,-1.4774,-1.4776,-1.4778,-1.4753,-1.4753,-1.4753,0,0,-1.5132,-1.5109,-1.5098,-1.5076,-1.5043,-1.5019,-1.5017,-1.4978,-1.4962,-1.494,-1.4913,-1.4896,-1.4857,-1.4835,-1.4818,-1.4825,-1.4805,-1.4819,-1.4834,-1.4825,-1.4826,-1.4828,-1.4829,-1.4831,-1.4819,-1.4819,-1.4819,0,-1.5153,-1.5125,-1.5094,-1.5078,-1.5062,-1.503,-1.5018,-1.4998,-1.4959,-1.4948,-1.4939,-1.489,-1.4866,-1.4842,-1.4844,-1.4832,-1.4827,-1.4823,-1.4829,-1.483,-1.4831,-1.4832,-1.4833,-1.4821,-1.482,-1.482,-1.482,0,-1.5152,-1.5134,-1.5129,-1.5092,-1.5075,-1.5061,-1.5028,-1.5014,-1.4995,-1.4972,-1.4949,-1.4919,-1.4889,-1.4881,-1.4862,-1.4854,-1.485,-1.4836,-1.4821,-1.4835,-1.4836,-1.4836,-1.4823,-1.4822,-1.4822,-1.4821,0,0,-1.519,-1.5137,-1.5136,-1.5119,-1.508,-1.5064,-1.5048,-1.502,-1.5008,-1.4982,-1.4967,-1.4936,-1.4922,-1.4904,-1.4881,-1.4873,-1.488,-1.486,-1.4858,-1.4864,-1.4868,-1.4879,-1.488,-1.4867,-1.4867,-1.4867,-1.4871,0,-1.52,-1.517,-1.5142,-1.5122,-1.5104,-1.5073,-1.5059,-1.5034,-1.5011,-1.4992,-1.4967,-1.4945,-1.4929,-1.4918,-1.4908,-1.4881,-1.488,-1.4881,-1.4851,-1.485,-1.486,-1.488,-1.4891,-1.4897,-1.4871,-1.4871,-1.4871,0,-1.5207,-1.5183,-1.5162,-1.5124,-1.5115,-1.5103,-1.5074,-1.5057,-1.5026,-1.501,-1.499,-1.4967,-1.4947,-1.4935,-1.4907,-1.4908,-1.4894,-1.4879,-1.4879,-1.4874,-1.4861,-1.4875,-1.4898,-1.4899,-1.4871,-1.4871,-1.4871,0,-1.5236,-1.5198,-1.518,-1.5167,-1.5123,-1.5115,-1.5096,-1.5065,-1.5049,-1.5024,-1.5013,-1.4986,-1.497,-1.4949,-1.4918,-1.4912,-1.4893,-1.4879,-1.4879,-1.488,-1.4876,-1.4876,-1.4896,-1.4868,-1.4868,-1.4868,-1.4868,0,-1.5249,-1.5237,-1.5193,-1.5182,-1.5167,-1.5134,-1.512,-1.5099,-1.5072,-1.5055,-1.5027,-1.5012,-1.4973,-1.4953,-1.4929,-1.4909,-1.4902,-1.4888,-1.4882,-1.489,-1.4892,-1.488,-1.4879,-1.4869,-1.4869,-1.4869,-1.4869,0,-1.5278,-1.5249,-1.5227,-1.5187,-1.5177,-1.5168,-1.5133,-1.5121,-1.5097,-1.5076,-1.507,-1.5032,-1.5007,-1.4975,-1.4939,-1.4923,-1.4906,-1.4896,-1.4916,-1.4912,-1.4914,-1.4914,-1.4926,-1.4925,-1.49,-1.49,-1.49,0,-1.5288,-1.5279,-1.5238,-1.5225,-1.5207,-1.5187,-1.5171,-1.5138,-1.5122,-1.5087,-1.5079,-1.5052,-1.5028,-1.4989,-1.4958,-1.4931,-1.492,-1.4926,-1.4916,-1.4924,-1.4919,-1.492,-1.4918,-1.4929,-1.4929,-1.4929,-1.493,0,-1.5309,-1.5295,-1.5273,-1.5246,-1.5228,-1.5205,-1.5181,-1.5172,-1.5134,-1.5117,-1.5092,-1.5074,-1.5038,-1.5011,-1.4979,-1.4959,-1.4937,-1.4933,-1.4932,-1.494,-1.4952,-1.4944,-1.4923,-1.4933,-1.4933,-1.4932,-1.4932,-1.4932,-1.5328,-1.5318,-1.5288,-1.5264,-1.5243,-1.5221,-1.5207,-1.5182,-1.516,-1.5129,-1.511,-1.5085,-1.5054,-1.501,-1.499,-1.4969,-1.4961,-1.4959,-1.4958,-1.4958,-1.4961,-1.4956,-1.4963,-1.4963,-1.4963,-1.4963,-1.4963,0,-1.5347,-1.5326,-1.5305,-1.5272,-1.5253,-1.5236,-1.5208,-1.5193,-1.5172,-1.5145,-1.5123,-1.5093,-1.5067,-1.5034,-1.5005,-1.4995,-1.4984,-1.4988,-1.4988,-1.4983,-1.497,-1.4974,-1.4997,-1.4997,-1.4997,-1.4997,-1.4997,-1.4997,-1.5354,-1.5335,-1.5317,-1.5287,-1.5266,-1.5241,-1.5227,-1.5206,-1.5184,-1.5153,-1.5131,-1.511,-1.508,-1.5049,-1.5024,-1.5015,-1.5005,-1.5012,-1.5,-1.4987,-1.4984,-1.4982,-1.4985,-1.501,-1.501,-1.5015,-1.5015,-1.5015]},{"header":{"parameterUnit":"m.s-1","parameterCategory":1,"la1":30.2991,"la2":30.254,"lo1":-89.0895,"lo2":-89.0444,"dy":0.0017,"dx":0.0017,"nx":28,"ny":28,"refTime":"2024-07-01T21:00:00:Z","depth":0,"parameterNumber":3,"parameterNumberName":"V-component_of_WINDS"},"data":[0,0,0,0,0,0,0,0,0,0,0,0,0,0,0,0,0,0,0,0,0,0,0,0,0,0,0,0,0,0,0,0,0,0,0,0,0,0,0,0,0,0,0,0,0,0,0,0,0,0,0,0,0,0,0,0,0,0,3.9285,3.9286,0,3.9357,3.9357,3.9358,3.9325,3.9324,3.9322,3.932,3.939,3.9393,3.9397,0,0,0,0,0,0,0,0,0,0,0,0,0,3.9118,3.9121,3.9285,3.9286,3.9287,3.9356,3.9357,3.9358,3.9326,3.9324,3.9321,3.9319,3.9389,3.9393,3.9397,0,0,0,0,0,0,0,0,0,0,0,0,0,3.919,3.9122,3.9285,3.9279,3.9279,3.9356,3.9357,3.9359,3.9326,3.9324,3.9321,3.9318,3.9387,3.9392,3.9398,3.9483,0,0,3.9414,3.9416,0,0,0,0,0,0,0,0,3.9186,3.9196,3.9279,3.928,3.928,3.9329,3.9324,3.94,3.9327,3.9308,3.932,3.9317,3.9372,3.9378,3.9397,3.9486,3.9489,3.9414,3.9417,3.942,3.9421,0,0,0,0,0,0,0,3.9181,3.9193,3.9313,3.928,3.9281,3.9272,3.9279,3.9338,3.9354,3.931,3.9308,3.9317,3.9371,3.9392,3.9398,3.949,3.9414,3.9419,3.9422,3.9424,3.9653,3.9656,0,0,0,0,0,0,3.9176,3.9189,3.9311,3.9315,3.9226,3.9277,3.9285,3.9316,3.9353,3.9356,3.9319,3.9315,3.9384,3.9392,3.9401,3.9503,3.9419,3.9424,3.9427,3.965,3.9654,3.9657,0,0,0,0,0,0,3.9173,3.9188,3.9308,3.9252,3.9266,3.9283,3.9318,3.9319,3.934,3.936,3.9362,3.9337,3.9383,3.9393,3.9463,3.9505,3.9427,3.9432,3.9647,3.9651,3.9655,3.9709,0,0,0,0,0,0,3.9168,3.9187,3.922,3.9253,3.927,3.9371,3.9321,3.9322,3.9349,3.9345,3.9378,3.9381,3.9381,3.9455,3.9468,3.9511,3.9436,3.9643,3.9649,3.9654,3.9704,3.9715,3.9725,0,0,0,0,0,3.9162,3.9232,3.9222,3.9237,3.9312,3.9373,3.9383,3.9383,3.9353,3.9386,3.9399,3.938,3.9499,3.9463,3.9477,3.9522,3.964,3.9647,3.9653,3.9699,3.9713,3.9724,0,0,0,0,0,0,3.9203,3.9236,3.9226,3.9308,3.9338,3.9368,3.941,3.9397,3.9435,3.9429,3.9427,3.9434,3.9507,3.9521,3.9481,3.9607,3.9565,3.9575,3.9595,3.9608,3.9618,3.9613,3.944,0,0,0,0,0,3.9222,3.927,3.9295,3.9365,3.9381,3.9393,3.942,3.9417,3.9448,3.946,3.9478,3.9508,3.9551,3.958,3.9622,3.9706,3.9712,3.9744,3.9754,3.9762,3.9771,3.9816,3.983,3.9679,3.9679,3.9678,0,0,3.926,3.9284,3.9315,3.9374,3.9397,3.9446,3.9404,3.9457,3.9493,3.9468,3.9535,3.9549,3.9582,3.9659,3.9694,3.9673,3.9814,3.9771,3.9777,3.9781,3.9824,3.9839,3.9851,3.9683,3.9682,3.9682,0,0,3.9356,3.9379,3.944,3.9464,3.95,3.9507,3.9522,3.9554,3.9562,3.963,3.9612,3.9654,3.973,3.9754,3.9776,3.9881,3.9864,3.9894,3.9948,3.9992,4.0004,4.0015,4.0052,4.0065,3.9902,3.9902,3.9903,0,3.9399,3.9473,3.9472,3.9528,3.9554,3.9534,3.9595,3.9619,3.9666,3.9684,3.9661,3.9755,3.9776,3.9858,3.9884,3.9903,3.9919,3.989,4.0003,4.0013,4.0023,4.0058,4.0072,3.9906,3.9905,3.9905,3.9905,0,3.9524,3.9576,3.962,3.9668,3.9699,3.9757,3.9764,3.9796,3.979,3.98,3.9869,3.9893,3.9939,3.9958,3.9953,4.004,4.0026,4.0003,3.9961,4.0041,4.0074,4.0088,3.9911,3.9909,3.9908,3.9908,0,0,3.9647,3.9694,3.971,3.9732,3.977,3.9809,3.9865,3.9911,3.9938,3.9971,4.0018,4.0083,4.0062,4.0087,4.0084,4.0123,4.0204,4.0095,4.0095,4.0114,4.0301,4.0318,4.0334,4.0193,4.0196,4.0198,4.0298,0,3.9746,3.9846,3.9847,3.9939,3.9986,3.9968,4.0017,4.0045,4.0055,4.0096,4.0106,4.0152,4.0121,4.0136,4.0174,4.0186,4.0241,4.0179,4.0236,4.0238,4.0228,4.0351,4.037,4.0463,4.0311,4.0313,4.0315,0,3.9874,3.9912,4.0009,4.004,4.006,4.0104,4.0147,4.0186,4.0217,4.0222,4.025,4.0241,4.0298,4.0254,4.0331,4.0289,4.0312,4.0321,4.0325,4.033,4.0281,4.036,4.0493,4.0507,4.0335,4.0333,4.0332,0,3.9954,4.003,4.0097,4.0116,4.0154,4.0186,4.0203,4.0231,4.0259,4.0295,4.0313,4.0355,4.0378,4.041,4.0413,4.0381,4.0491,4.0447,4.0496,4.0496,4.052,4.0518,4.0658,4.0535,4.0534,4.0534,4.0534,0,4.0064,4.0123,4.0134,4.0176,4.0242,4.0242,4.0307,4.0321,4.0347,4.039,4.0377,4.0417,4.0418,4.0459,4.0462,4.0525,4.0535,4.054,4.054,4.0542,4.0541,4.0557,4.055,4.0538,4.0537,4.0536,4.0536,0,4.0164,4.0174,4.0246,4.0277,4.0286,4.0333,4.0359,4.0398,4.0407,4.0462,4.0474,4.0488,4.0536,4.0542,4.0597,4.0599,4.0675,4.0668,4.0665,4.0664,4.0712,4.0708,4.0868,4.0889,4.0751,4.0752,4.0754,0,4.0234,4.028,4.0315,4.0344,4.0363,4.0409,4.0437,4.0439,4.0469,4.0508,4.0542,4.0589,4.0626,4.0703,4.0718,4.076,4.0754,4.0807,4.076,4.076,4.0754,4.0752,4.0756,4.0816,4.0817,4.0819,4.082,0,4.0356,4.0358,4.04,4.0444,4.0479,4.0513,4.0545,4.0569,4.0575,4.0609,4.0658,4.0687,4.0745,4.0791,4.0833,4.0849,4.0835,4.0834,4.0848,4.085,4.0846,4.0849,4.069,4.0831,4.083,4.0829,4.0828,4.0828,4.0443,4.0483,4.0515,4.0562,4.0586,4.0617,4.0655,4.0669,4.0711,4.0758,4.0756,4.0811,4.084,4.0895,4.0914,4.0956,4.0938,4.0957,4.0962,4.0967,4.0972,4.084,4.0963,4.0963,4.0963,4.0962,4.0962,0,4.0565,4.0584,4.0628,4.0674,4.0711,4.0695,4.073,4.0762,4.081,4.0839,4.0877,4.0933,4.0978,4.0996,4.104,4.107,4.1064,4.1081,4.1079,4.1083,4.0986,4.097,4.1085,4.1085,4.1085,4.1084,4.1084,4.1084,4.0632,4.0699,4.0705,4.0784,4.0802,4.0856,4.0877,4.0905,4.0928,4.0993,4.103,4.1042,4.1066,4.1112,4.1152,4.1156,4.1172,4.1192,4.1193,4.1102,4.109,4.1078,4.1063,4.1196,4.1196,4.1287,4.1288,4.1288]}]]